GFSSW_sfc_30mbdewp_090.txt.gz
Dewpoint
49 47 46 42 42 43 41 43 42 46 47 45 45 45 46 47 48 47 44 46 47 49 48 46 44 46 49 46 48 47 40 36 37 38 38 39 39 43 43 41 41 39 46 53 61
44 44 44 44 42 42 45 42 47 48 47 43 43 46 47 48 46 43 45 46 47 48 47 45 42 45 45 45 44 44 39 37 38 40 39 40 39 39 40 40 40 40 54 62 65
44 43 44 43 45 42 44 42 46 47 46 46 44 47 47 46 38 35 48 44 46 46 48 47 44 43 42 45 41 43 39 39 38 39 40 41 41 42 40 40 40 39 43 59 61
45 44 43 42 46 44 44 44 43 44 45 48 47 45 47 42 26 43 49 48 46 44 45 45 44 41 40 40 42 40 42 40 39 39 37 40 43 43 44 41 42 42 41 43 56
41 42 43 43 45 44 45 46 46 46 48 49 48 45 44 38 37 39 41 47 43 41 44 44 40 41 36 40 40 38 40 40 41 40 39 37 36 41 44 42 44 43 43 41 45
42 40 43 44 44 45 45 44 47 47 45 46 46 47 40 32 37 40 41 44 42 40 41 43 41 41 39 38 38 39 38 40 41 41 39 36 36 37 40 44 44 44 43 42 40
43 42 41 44 44 44 46 46 46 45 45 45 46 44 39 34 38 39 39 38 43 40 38 41 44 39 39 37 38 39 36 36 39 40 40 38 36 34 37 42 42 43 42 42 39
42 42 42 44 44 45 46 46 45 45 46 45 47 41 34 38 40 39 39 43 45 45 43 45 45 43 38 40 38 35 36 31 33 39 39 37 32 35 41 43 43 44 42 41 39
42 42 40 44 46 45 46 46 45 46 46 46 41 36 30 35 36 41 42 41 43 42 42 41 42 41 39 36 35 33 31 31 31 38 37 36 34 34 37 39 43 45 45 41 37
43 42 43 44 46 46 46 43 44 43 41 39 40 31 31 33 36 40 44 42 38 38 36 37 34 35 36 33 27 27 29 32 29 36 37 35 33 33 35 36 36 41 43 39 38
44 41 44 46 46 45 42 33 28 31 34 31 32 29 32 35 38 39 42 40 38 37 30 33 29 28 31 35 32 33 28 30 32 36 36 35 35 33 34 35 35 35 34 40 38
43 42 45 46 46 46 37 32 32 32 24 30 31 33 34 35 32 36 39 35 32 30 32 29 25 33 35 33 31 32 30 29 33 36 35 35 34 35 35 35 33 34 34 35 35
42 43 46 46 46 41 36 35 41 38 25 28 31 32 33 35 30 32 37 34 31 28 27 23 28 33 33 32 30 31 28 29 30 33 33 34 32 33 35 36 36 35 33 33 34
43 45 46 45 41 43 38 41 40 33 18 25 30 35 36 35 26 33 37 32 30 26 27 25 28 29 31 29 31 27 33 30 30 31 27 31 25 28 33 34 35 35 36 35 33
44 46 46 47 40 39 40 42 40 29 11 30 33 37 36 28 29 29 34 29 28 27 26 21 26 25 26 29 31 29 32 33 29 28 28 29 26 25 29 31 32 33 34 35 35
45 47 47 44 43 43 42 41 35 16 17 28 34 29 30 30 30 31 31 31 31 28 28 26 29 27 27 30 32 33 31 36 34 29 23 25 26 23 25 27 29 31 32 34 34
46 47 46 42 38 44 43 37 19 18 25 29 29 30 29 28 28 28 29 27 24 19 18 22 24 28 31 30 32 32 28 25 23 24 20 26 27 25 25 27 27 27 29 31 33
45 44 46 44 43 44 41 31 17 24 26 33 31 29 25 29 27 28 26 24 25 17 19 14 10 23 27 27 27 30 28 23 19 18 22 27 23 22 27 27 28 27 28 30 31
43 40 39 42 42 41 34 23 23 28 32 32 30 25 25 29 28 27 25 23 24 23 13 15 10 25 27 30 29 29 26 32 25 22 22 25 26 27 27 27 28 28 26 27 28
39 38 39 42 42 39 28 28 29 33 35 35 28 29 26 26 24 25 24 26 23 25 23 24 13 27 27 29 33 29 31 24 25 18 15 20 23 21 23 25 27 28 28 31 36
36 33 37 43 41 35 28 30 32 34 36 34 33 32 33 27 26 24 25 28 26 26 24 28 25 24 26 26 25 29 29 28 28 24 16 16 19 25 23 24 26 28 33 34 37
33 28 36 41 29 34 31 33 35 34 38 37 37 35 33 33 28 26 25 28 31 27 24 26 24 21 23 31 29 29 28 26 20 24 23 20 21 25 26 26 28 30 35 38 39
30 29 30 34 26 29 30 30 30 35 36 32 35 34 34 32 29 31 33 33 33 27 24 25 18 19 23 27 32 27 31 26 25 25 23 18 18 26 28 28 30 33 37 39 40
25 11 22 30 33 31 30 30 28 30 35 34 36 33 33 30 34 31 33 33 34 29 28 25 22 20 16 18 26 26 30 29 24 19 20 22 22 23 24 28 32 34 37 39 39
26 25 28 18 22 26 29 25 26 26 30 34 35 34 33 29 29 30 33 34 32 33 33 30 27 26 29 30 26 25 29 31 26 24 20 22 23 24 24 27 32 35 38 39 39
21 20 27 25 25 26 25 23 24 25 26 31 32 33 35 32 32 30 33 32 31 34 31 32 30 28 28 31 30 27 31 31 31 29 28 24 23 24 27 31 33 35 38 39 39
31 31 26 22 21 22 23 23 21 24 25 34 34 32 34 34 35 35 35 35 35 33 31 30 29 22 25 30 30 27 30 31 30 29 28 25 25 25 26 28 31 33 36 39 39

GFSSW_sfc_30mbdewp_093.txt.gz
Dewpoint
44 45 46 46 43 45 44 45 42 47 49 48 46 45 46 47 48 46 42 44 46 47 48 47 44 46 50 46 48 47 40 35 37 38 38 39 38 42 43 39 40 40 44 54 61
48 45 45 45 44 46 44 43 44 46 48 47 46 44 47 48 45 42 44 44 46 46 46 44 40 45 47 45 44 44 38 36 38 40 39 39 39 41 39 40 40 40 57 63 65
46 43 45 44 44 45 43 44 46 43 44 46 48 46 48 45 36 35 49 48 46 46 46 48 44 44 43 45 42 41 38 38 38 40 40 40 39 40 40 39 39 38 48 59 61
43 44 43 44 43 45 45 45 46 46 46 48 49 47 47 41 22 42 44 47 45 45 43 47 43 41 40 40 42 37 41 40 40 39 40 41 43 41 41 39 41 41 41 48 58
44 45 44 44 43 44 45 45 44 46 48 47 48 47 43 38 36 40 42 46 41 40 42 43 41 39 36 38 40 38 40 40 41 40 40 38 40 41 43 43 42 42 43 42 45
46 42 41 44 44 45 45 46 47 47 46 45 46 47 40 34 37 40 40 40 42 38 38 40 41 41 37 36 36 38 37 40 40 40 40 37 36 39 40 45 44 43 42 42 41
46 44 44 44 45 45 45 47 46 45 46 46 46 44 39 36 38 39 39 38 42 39 36 40 41 41 39 35 38 39 36 35 38 40 40 39 37 36 37 44 43 43 42 42 42
45 45 45 44 44 45 46 46 45 46 47 45 47 40 35 38 39 39 40 44 44 45 42 43 42 40 41 39 37 36 36 30 32 38 40 38 33 36 38 41 42 43 43 41 41
46 46 44 45 46 46 46 45 45 48 47 46 40 36 30 35 36 42 44 41 42 42 42 42 41 38 39 35 34 34 29 30 26 37 38 37 34 36 38 42 42 43 42 41 41
45 45 44 45 46 47 46 43 41 43 39 39 38 29 32 32 36 41 43 41 38 38 36 36 36 32 35 32 24 27 29 32 26 33 37 35 34 33 35 38 41 44 44 42 43
43 44 44 47 47 45 41 31 28 29 32 31 31 28 30 34 38 40 41 38 38 36 30 33 30 27 32 34 33 33 29 28 30 37 35 35 34 33 34 36 36 40 45 44 45
43 45 46 47 46 46 37 32 31 32 24 30 31 32 34 35 32 39 41 36 32 29 32 29 26 31 34 35 32 32 30 30 32 35 36 35 35 36 35 34 35 35 43 46 45
43 45 47 47 46 40 36 34 40 35 25 28 31 32 34 35 30 33 38 35 31 28 26 22 26 33 34 32 31 31 30 30 31 35 34 35 33 34 36 36 35 34 35 38 39
44 45 46 44 40 42 37 41 40 29 18 25 29 34 35 35 26 34 38 33 30 25 27 25 28 28 31 31 31 27 32 31 32 31 28 32 24 31 34 34 36 36 35 34 34
44 46 47 46 39 39 40 41 38 27 11 28 33 36 35 27 29 30 34 30 27 27 24 20 26 25 27 31 31 29 33 32 32 29 28 29 26 25 29 32 32 35 36 36 36
45 47 47 44 42 43 42 41 33 16 18 26 34 31 30 30 30 31 31 31 31 28 27 25 29 28 29 32 33 33 31 33 33 28 23 27 25 21 25 29 31 32 33 35 36
45 46 45 42 38 43 42 36 18 19 25 27 29 30 29 28 27 28 28 26 24 18 18 20 22 28 32 30 32 31 27 24 23 23 19 27 27 24 25 27 29 31 31 33 35
45 44 45 44 44 44 41 29 19 24 27 32 32 30 25 29 28 28 27 25 24 16 18 13 12 24 28 29 28 29 28 21 18 17 21 27 22 22 26 28 27 28 28 30 31
43 39 39 39 43 42 32 24 23 29 33 32 32 26 24 28 28 27 26 24 24 20 12 13 10 24 28 31 32 29 26 32 24 22 21 24 26 26 28 28 28 28 29 27 28
38 37 38 42 42 39 28 27 29 33 36 34 29 29 28 26 24 25 24 27 24 24 21 19 12 26 27 33 32 30 33 24 24 18 15 22 23 20 23 27 27 28 29 28 33
36 33 36 42 41 33 28 29 33 35 38 34 33 31 32 28 26 25 25 28 27 25 23 27 23 23 26 26 27 29 28 27 28 24 16 18 19 25 24 24 25 27 30 32 36
33 25 36 41 28 31 28 33 30 33 36 36 36 33 33 33 28 26 25 28 31 26 21 24 25 19 20 29 28 30 27 25 20 23 22 19 21 25 26 27 26 30 35 37 39
28 27 28 33 24 28 28 30 30 30 34 33 34 34 33 33 29 32 32 32 32 25 22 23 17 18 20 22 29 27 29 26 25 24 23 17 20 25 27 28 30 33 37 39 39
22 11 22 30 29 29 28 25 24 29 35 32 35 34 32 29 33 31 32 31 32 26 28 24 19 19 11 12 25 24 28 26 23 18 19 20 21 22 25 26 31 35 38 39 38
25 23 27 11 20 26 28 23 21 20 25 32 34 31 32 30 31 31 34 30 32 33 33 27 19 22 23 27 28 24 27 27 22 20 15 17 20 24 23 26 31 34 37 39 38
19 20 26 22 24 25 23 21 21 20 24 29 31 30 33 32 32 29 31 33 31 30 30 31 26 28 25 31 29 24 28 29 25 24 24 23 23 25 27 31 33 35 37 38 39
30 31 22 20 22 20 20 20 18 22 23 27 30 28 31 34 32 31 33 34 35 32 29 29 28 26 25 30 30 25 29 30 29 29 26 24 26 25 25 27 31 34 37 38 39

GFSSW_sfc_30mbdewp_099.txt.gz
Dewpoint
49 47 46 45 45 45 45 48 45 47 47 46 48 47 46 48 48 44 39 39 39 39 43 44 42 37 46 47 44 40 37 37 34 33 32 32 30 32 32 31 34 34 42 49 59
48 48 47 45 43 45 45 45 47 46 48 46 45 47 48 48 41 36 44 47 49 45 41 37 38 36 39 44 45 41 35 31 35 34 36 35 33 33 34 35 34 38 50 53 59
48 48 48 45 43 44 45 45 47 47 46 47 49 49 48 45 37 31 47 45 45 48 42 38 38 38 32 42 43 40 29 29 29 32 36 38 43 41 35 35 34 35 46 54 57
47 48 48 46 43 44 44 45 46 47 48 47 49 48 48 42 30 38 43 43 45 43 41 38 42 41 30 35 41 38 36 30 26 38 41 38 42 40 36 36 33 35 43 51 53
47 47 48 47 46 44 45 45 46 47 49 48 48 48 45 38 35 37 38 36 36 39 38 38 40 40 32 27 39 38 32 33 34 36 37 40 42 40 35 36 36 35 42 44 49
47 46 47 46 46 44 46 45 46 48 47 47 47 48 42 34 36 37 35 34 34 35 36 36 38 41 39 28 37 39 37 32 34 38 35 34 37 42 36 37 37 37 38 39 39
47 46 45 45 44 45 47 47 47 46 47 47 46 44 38 34 37 35 35 33 35 37 34 39 40 39 40 32 32 38 38 35 31 36 37 35 32 34 37 36 35 38 39 38 40
45 45 46 46 45 47 48 47 45 48 47 47 47 41 34 36 35 36 36 35 37 39 36 39 39 38 38 39 34 35 38 34 33 31 39 37 26 32 34 33 34 36 37 38 40
46 45 45 46 47 47 46 45 45 46 47 47 42 38 30 35 33 38 39 35 37 39 41 40 37 36 37 32 33 31 28 32 28 29 32 36 30 28 33 32 32 34 34 37 39
45 45 45 47 48 47 47 43 42 43 40 39 37 35 31 29 35 39 40 39 36 37 37 36 35 31 32 30 24 27 24 31 29 29 27 33 33 35 35 34 31 30 31 33 34
45 44 46 48 47 47 40 37 33 33 33 30 29 26 28 34 38 37 38 38 34 32 29 31 28 24 29 29 30 33 24 21 26 27 27 25 26 29 34 35 33 31 30 32 32
45 44 47 47 46 43 39 33 34 35 26 28 30 30 31 34 30 36 37 34 30 29 28 30 25 23 28 29 32 31 32 21 24 24 27 24 24 25 31 33 34 32 32 33 35
45 44 47 45 45 41 37 35 39 36 29 29 31 29 30 33 27 31 36 31 27 25 28 26 30 29 29 30 30 31 31 25 23 28 26 24 24 26 28 32 33 34 33 35 36
45 46 47 47 42 40 38 41 40 36 29 28 30 33 33 32 27 31 35 32 28 23 24 24 27 29 31 29 32 29 33 33 27 27 24 24 23 23 26 28 31 32 33 33 36
45 47 48 45 39 38 41 41 40 35 22 30 32 36 34 29 28 30 35 31 26 23 24 23 25 30 30 31 35 32 33 32 33 31 24 24 20 20 25 26 29 31 31 33 34
45 47 47 42 42 43 42 41 38 28 21 29 32 32 32 29 28 29 31 30 30 24 23 23 27 29 32 35 37 35 33 32 30 31 25 27 21 18 19 23 25 27 30 30 33
45 47 45 41 40 43 42 39 29 24 28 30 32 32 31 30 28 28 28 26 23 20 19 23 26 25 35 31 34 35 30 23 22 23 18 24 21 18 18 21 20 22 28 29 32
45 46 43 40 44 44 41 33 24 23 29 33 33 33 29 31 27 28 29 26 23 26 19 17 17 26 33 33 30 30 31 24 18 18 18 20 26 18 22 24 25 24 27 30 31
44 42 38 43 44 43 36 27 26 30 34 32 32 29 29 30 30 29 27 28 27 25 21 14 18 24 26 31 33 29 27 31 27 28 18 23 20 21 22 23 24 26 28 29 30
40 39 36 43 43 41 32 26 28 34 35 35 29 32 28 30 26 27 28 31 27 24 19 22 18 23 26 30 33 32 31 25 27 22 17 19 16 13 18 21 23 24 27 29 29
39 35 37 44 42 36 28 27 29 30 33 34 31 29 28 30 30 29 28 30 29 23 20 22 24 22 24 26 28 30 30 28 29 26 23 17 16 24 24 23 22 24 27 28 30
37 32 35 43 32 32 28 28 29 29 31 33 34 32 29 28 31 30 28 29 29 23 20 21 24 16 19 25 28 32 31 27 27 24 25 25 21 24 26 27 25 27 29 30 31
27 28 33 37 30 28 27 26 28 28 30 30 32 31 32 30 29 32 30 34 28 22 18 22 21 15 14 19 28 27 27 26 25 26 27 25 19 24 27 26 29 32 34 36 36
26 28 26 28 30 29 27 20 18 24 31 30 33 30 30 29 30 30 30 31 28 22 25 23 17 17 12 16 21 23 24 25 24 25 24 20 20 22 25 29 33 35 36 36 36
25 28 28 28 23 22 26 17 16 19 24 29 33 28 28 29 27 30 30 30 31 31 26 22 17 14 17 23 23 22 21 24 24 23 27 19 20 22 26 29 33 36 36 36 36
22 25 25 21 23 22 18 15 15 16 23 27 26 27 29 31 31 29 31 30 30 31 30 28 22 27 24 16 18 20 23 19 22 22 20 19 20 26 28 31 33 35 36 36 36
30 29 26 19 18 17 17 17 16 19 19 24 23 26 28 31 28 29 31 33 33 31 28 28 22 28 26 31 27 24 24 21 19 17 19 17 20 26 27 27 31 33 35 36 36

GFSSW_sfc_30mbdewp_105.txt.gz
Dewpoint
49 48 48 50 49 47 44 44 45 46 49 48 49 48 49 49 49 45 44 44 45 46 46 44 39 40 42 39 45 46 37 33 34 35 39 37 39 38 35 33 44 53 55 61 64
49 48 48 49 49 48 46 45 44 46 47 49 48 49 49 49 46 42 42 46 47 43 46 42 36 37 38 39 40 40 36 34 35 37 37 39 42 41 42 44 52 56 61 63 64
47 48 48 48 48 47 47 44 47 46 47 48 49 49 49 49 42 43 46 43 42 42 43 42 38 37 38 39 39 39 38 36 35 38 38 39 46 48 47 45 48 53 58 62 61
48 48 48 48 47 46 45 45 48 46 46 48 50 49 48 47 32 42 39 39 38 40 41 41 39 36 38 36 36 36 37 40 39 37 37 42 47 44 47 46 48 48 58 60 62
48 48 48 47 46 46 46 46 49 47 48 49 49 48 47 41 37 39 39 36 34 35 35 37 37 35 34 37 37 33 36 38 38 39 42 44 42 44 45 46 47 46 54 60 61
48 48 47 47 46 46 47 47 48 47 47 47 47 48 44 34 36 36 35 34 33 34 35 35 39 40 37 36 36 37 36 35 37 41 39 38 41 43 43 46 46 46 48 56 59
48 47 47 46 46 47 48 48 47 47 48 49 47 46 40 36 36 35 35 34 34 34 36 39 42 39 38 34 38 37 35 37 39 40 39 40 40 41 42 46 46 46 46 53 57
47 47 47 45 47 48 48 47 44 48 46 48 47 45 36 37 34 34 37 35 36 38 39 38 38 39 37 37 34 36 35 31 36 39 38 41 31 42 46 47 46 46 46 49 54
47 46 47 46 48 49 47 45 44 46 47 47 45 42 34 35 33 36 38 37 35 39 39 38 38 33 36 32 30 33 28 31 30 37 37 39 34 38 45 47 44 45 44 44 46
47 45 46 46 49 47 46 43 43 44 44 45 37 35 34 30 34 38 38 38 35 36 36 36 35 31 33 30 20 27 29 31 29 32 37 37 35 35 42 45 45 45 43 43 42
45 45 44 46 48 46 44 40 36 34 34 31 31 31 28 34 36 37 37 36 36 33 29 32 27 24 23 31 29 31 30 30 30 33 34 36 35 33 40 41 42 44 43 44 41
46 45 47 48 47 46 44 35 36 36 31 27 28 29 29 33 31 33 37 35 31 28 29 27 22 25 29 28 30 31 28 27 29 36 35 35 33 34 39 39 41 42 39 42 39
45 46 47 48 47 44 38 37 40 37 32 30 31 30 33 33 30 32 35 34 30 28 26 24 23 29 27 28 29 30 28 27 30 34 36 35 31 32 40 41 40 37 34 34 32
46 46 48 48 44 40 39 41 41 38 27 29 31 33 33 31 30 31 36 33 30 25 25 26 28 26 26 26 29 26 30 27 29 31 26 34 25 31 36 39 38 37 34 35 34
47 46 48 46 43 40 42 41 41 37 19 30 32 36 34 30 29 30 34 33 29 28 29 20 24 25 25 28 27 27 31 29 30 32 31 31 26 25 34 33 32 32 32 34 34
46 46 48 45 43 42 42 42 39 24 19 27 33 33 32 32 29 30 31 33 30 26 25 23 27 28 29 32 34 33 33 33 32 31 23 29 25 20 25 27 30 31 31 33 33
46 46 47 43 41 43 42 40 26 20 30 28 31 33 33 30 30 28 28 28 24 22 21 22 24 32 33 31 34 34 29 23 22 22 19 27 24 21 23 27 29 31 30 32 33
45 47 43 43 44 43 42 32 18 28 29 32 32 31 29 31 32 31 28 26 28 25 21 21 18 28 32 32 31 31 28 23 17 19 20 27 21 22 24 25 29 29 31 32 32
45 45 44 44 45 44 37 24 26 28 30 30 31 28 28 31 31 29 28 27 30 23 18 18 19 31 33 34 34 30 27 31 22 26 21 26 24 27 25 23 24 27 30 30 31
42 42 37 44 44 41 31 25 27 30 29 34 27 29 28 29 28 27 27 30 28 27 24 21 19 23 26 32 33 32 33 21 23 18 17 23 21 18 21 22 24 25 26 30 31
41 38 37 44 43 37 25 26 26 28 30 32 29 27 29 29 31 28 26 28 30 24 22 20 25 17 26 25 27 29 26 29 28 26 22 20 20 23 25 24 23 25 27 29 31
40 34 38 44 32 30 27 27 28 27 31 32 33 31 29 29 28 26 26 29 30 27 19 20 24 18 22 26 32 31 30 30 24 24 27 24 21 26 27 27 25 25 28 30 31
35 35 37 41 30 28 28 26 28 26 27 27 32 28 27 32 29 29 26 30 31 26 23 24 21 17 16 21 28 27 29 31 31 30 26 23 21 27 27 31 31 31 35 35 34
30 24 32 35 31 28 26 18 23 26 28 31 31 27 27 29 30 29 27 29 31 30 28 24 20 19 17 22 24 23 24 28 28 26 27 26 24 28 31 33 34 35 36 36 36
32 30 28 24 26 24 25 18 17 23 26 28 30 25 26 29 31 30 31 28 29 31 28 28 19 20 23 25 23 23 23 25 25 30 26 26 25 28 32 35 35 36 36 36 35
24 22 26 23 21 20 24 17 16 17 21 26 25 25 26 30 29 28 30 31 30 29 27 29 12 17 22 24 23 21 21 22 27 32 30 27 25 28 32 36 35 35 35 35 36
30 30 22 22 19 19 18 17 18 18 20 23 22 27 25 29 28 29 30 33 34 29 25 26 25 25 25 28 21 20 26 21 29 33 28 27 27 28 28 32 35 36 36 36 36